NKS746 KDTW-KDFW

Flight info

Callsign NKS746
Flight time N/A
Altitude 30000
Route SNDRS3 BGHRT STL RZC FSM RRNET BRDJE5
Aircraft A320/M-SDE3FGHIRWY/LB1

Departure

Time N/A
Airport Detroit Metropolitan Wayne County Airport (KDTW)

Arrival

Time 2026-05-06 07:31
Airport Dallas Fort Worth International Airport (KDFW)
Time Latitude Longitude Altitude Speed Heading
2026-05-06 06:43 34.06583 -95.64585 29855 ft 398 kts 227°
2026-05-06 06:44 34.04444 -95.66715 29860 ft 399 kts 227°
2026-05-06 06:44 34.00908 -95.70245 29886 ft 391 kts 227°
2026-05-06 06:45 33.96781 -95.74340 29892 ft 379 kts 227°
2026-05-06 06:45 33.92723 -95.78367 29642 ft 378 kts 227°
2026-05-06 06:45 33.90693 -95.80384 29372 ft 379 kts 227°
2026-05-06 06:46 33.88656 -95.82406 29104 ft 380 kts 227°
2026-05-06 06:46 33.86615 -95.84432 28830 ft 382 kts 227°
2026-05-06 06:46 33.84563 -95.86470 28568 ft 383 kts 227°
2026-05-06 06:46 33.82500 -95.88515 28308 ft 385 kts 227°
2026-05-06 06:47 33.80429 -95.90566 28006 ft 386 kts 226°
2026-05-06 06:47 33.78380 -95.92581 27749 ft 374 kts 226°
2026-05-06 06:47 33.76385 -95.94533 27506 ft 367 kts 227°
2026-05-06 06:47 33.74421 -95.96468 27246 ft 364 kts 227°
2026-05-06 06:48 33.72472 -95.98399 26996 ft 363 kts 227°
2026-05-06 06:48 33.70532 -96.00328 26748 ft 362 kts 227°
2026-05-06 06:48 33.68593 -96.02249 26503 ft 361 kts 226°
2026-05-06 06:48 33.66652 -96.04160 26259 ft 361 kts 226°
2026-05-06 06:49 33.64712 -96.06068 26018 ft 360 kts 226°
2026-05-06 06:49 33.62777 -96.07972 25779 ft 360 kts 226°
2026-05-06 06:49 33.60846 -96.09873 25557 ft 358 kts 226°
2026-05-06 06:49 33.58922 -96.11767 25319 ft 357 kts 226°
2026-05-06 06:50 33.57000 -96.13659 25086 ft 357 kts 226°
2026-05-06 06:50 33.55081 -96.15544 24854 ft 357 kts 226°
2026-05-06 06:50 33.53161 -96.17426 24604 ft 356 kts 226°
2026-05-06 06:50 33.51248 -96.19300 24362 ft 354 kts 226°
2026-05-06 06:51 33.49345 -96.21165 24141 ft 353 kts 226°
2026-05-06 06:51 33.47446 -96.23028 23896 ft 352 kts 226°
2026-05-06 06:51 33.45555 -96.24884 23241 ft 351 kts 226°
2026-05-06 06:51 33.43819 -96.26902 22561 ft 344 kts 234°
2026-05-06 06:52 33.42277 -96.29057 22219 ft 336 kts 234°
2026-05-06 06:52 33.40764 -96.31146 21833 ft 330 kts 233°
2026-05-06 06:52 33.39262 -96.33210 21309 ft 327 kts 233°
2026-05-06 06:52 33.37771 -96.35255 20798 ft 325 kts 233°
2026-05-06 06:53 33.36298 -96.37275 20286 ft 323 kts 233°
2026-05-06 06:53 33.34825 -96.39294 19773 ft 321 kts 233°
2026-05-06 06:53 33.33360 -96.41301 19265 ft 320 kts 233°
2026-05-06 06:53 33.31907 -96.43300 18761 ft 317 kts 233°
2026-05-06 06:54 33.30474 -96.45297 18253 ft 316 kts 233°
2026-05-06 06:54 33.29063 -96.47285 17705 ft 314 kts 233°
2026-05-06 06:54 33.27655 -96.49275 17095 ft 314 kts 233°
2026-05-06 06:54 33.26233 -96.51239 16711 ft 309 kts 232°
2026-05-06 06:55 33.24798 -96.53151 16419 ft 309 kts 232°
2026-05-06 06:55 33.23354 -96.55050 16118 ft 309 kts 232°
2026-05-06 06:55 33.21905 -96.56939 15824 ft 308 kts 232°
2026-05-06 06:55 33.20473 -96.58807 15553 ft 301 kts 232°
2026-05-06 06:56 33.19073 -96.60636 15233 ft 296 kts 232°
2026-05-06 06:56 33.17695 -96.62447 14934 ft 294 kts 233°
2026-05-06 06:56 33.16344 -96.64272 14553 ft 292 kts 233°
2026-05-06 06:56 33.15015 -96.66103 14181 ft 292 kts 234°
2026-05-06 06:57 33.13695 -96.67934 13819 ft 291 kts 234°
2026-05-06 06:57 33.12375 -96.69759 13426 ft 289 kts 234°
2026-05-06 06:57 33.11078 -96.71539 13282 ft 279 kts 234°
2026-05-06 06:57 33.09826 -96.73250 13146 ft 269 kts 234°
2026-05-06 06:58 33.08620 -96.74901 13000 ft 260 kts 234°
2026-05-06 06:58 33.07441 -96.76516 12737 ft 256 kts 234°
2026-05-06 06:58 33.06278 -96.78103 12491 ft 253 kts 234°
2026-05-06 06:58 33.05119 -96.79679 12245 ft 252 kts 234°
2026-05-06 06:59 33.03959 -96.81246 12005 ft 252 kts 234°
2026-05-06 06:59 33.02822 -96.82784 11958 ft 250 kts 234°
2026-05-06 06:59 33.01666 -96.84355 12019 ft 253 kts 234°
2026-05-06 06:59 33.00512 -96.85917 12022 ft 246 kts 233°
2026-05-06 07:00 32.99407 -96.87403 12021 ft 233 kts 234°
2026-05-06 07:00 32.98357 -96.88807 12025 ft 221 kts 233°
2026-05-06 07:00 32.97140 -96.89926 12027 ft 226 kts 214°
2026-05-06 07:00 32.95579 -96.90446 11828 ft 242 kts 194°
2026-05-06 07:01 32.93903 -96.90565 11617 ft 241 kts 193°
2026-05-06 07:01 32.92228 -96.90678 11394 ft 241 kts 193°
2026-05-06 07:01 32.90554 -96.90791 11174 ft 241 kts 193°
2026-05-06 07:01 32.88879 -96.90907 10961 ft 241 kts 193°
2026-05-06 07:02 32.87232 -96.91022 10752 ft 241 kts 193°
2026-05-06 07:02 32.85557 -96.91142 10543 ft 241 kts 193°
2026-05-06 07:02 32.83886 -96.91263 10261 ft 241 kts 193°
2026-05-06 07:02 32.82207 -96.91388 9963 ft 242 kts 193°
2026-05-06 07:03 32.80530 -96.91510 9656 ft 242 kts 193°
2026-05-06 07:03 32.78847 -96.91611 9362 ft 242 kts 191°
2026-05-06 07:03 32.78302 -96.91625 9280 ft 242 kts 190°
2026-05-06 07:03 32.75538 -96.91623 8838 ft 240 kts 188°
2026-05-06 07:04 32.73877 -96.91608 8577 ft 238 kts 188°
2026-05-06 07:04 32.72228 -96.91593 8332 ft 236 kts 188°
2026-05-06 07:04 32.70593 -96.91583 8080 ft 234 kts 187°
2026-05-06 07:04 32.68973 -96.91576 7783 ft 233 kts 186°
2026-05-06 07:05 32.67366 -96.91577 7495 ft 232 kts 186°
2026-05-06 07:05 32.65757 -96.91578 7238 ft 230 kts 186°
2026-05-06 07:05 32.64162 -96.91577 6992 ft 228 kts 185°
2026-05-06 07:05 32.62591 -96.91649 6735 ft 223 kts 196°
2026-05-06 07:06 32.61214 -96.92359 6471 ft 214 kts 220°
2026-05-06 07:06 32.60283 -96.93696 6200 ft 212 kts 244°
2026-05-06 07:06 32.59938 -96.95374 5910 ft 214 kts 262°
2026-05-06 07:06 32.59796 -96.97138 5564 ft 216 kts 261°
2026-05-06 07:07 32.59651 -96.98910 5265 ft 215 kts 261°
2026-05-06 07:07 32.59770 -97.00678 5035 ft 221 kts 286°
2026-05-06 07:07 32.60714 -97.02163 5014 ft 236 kts 320°
2026-05-06 07:07 32.62294 -97.02782 5020 ft 248 kts 354°
2026-05-06 07:08 32.64026 -97.02777 5015 ft 250 kts 358°
2026-05-06 07:08 32.65755 -97.02739 4815 ft 247 kts 358°
2026-05-06 07:08 32.67470 -97.02724 4512 ft 246 kts 358°
2026-05-06 07:08 32.69186 -97.02716 4195 ft 247 kts 358°
2026-05-06 07:09 32.70902 -97.02708 3890 ft 247 kts 358°
2026-05-06 07:09 32.72625 -97.02699 3563 ft 247 kts 358°
2026-05-06 07:09 32.74308 -97.02690 3261 ft 247 kts
2026-05-06 07:09 32.76030 -97.02681 2930 ft 236 kts
2026-05-06 07:10 32.77615 -97.02673 2648 ft 217 kts
2026-05-06 07:10 32.79047 -97.02667 2361 ft 194 kts
2026-05-06 07:10 32.80334 -97.02660 2091 ft 177 kts
2026-05-06 07:10 32.81517 -97.02653 1860 ft 163 kts
2026-05-06 07:11 32.82611 -97.02694 1651 ft 149 kts 359°
2026-05-06 07:11 32.83588 -97.02723 1539 ft 136 kts
2026-05-06 07:11 32.84512 -97.02616 1401 ft 132 kts
2026-05-06 07:11 32.85422 -97.02609 1133 ft 130 kts 357°
2026-05-06 07:12 32.86334 -97.02617 935 ft 131 kts 359°
2026-05-06 07:12 32.87244 -97.02617 787 ft 131 kts
2026-05-06 07:12 32.88149 -97.02614 634 ft 129 kts
2026-05-06 07:12 32.89144 -97.02598 850 ft 163 kts
2026-05-06 07:13 32.90406 -97.02590 1258 ft 195 kts
2026-05-06 07:13 32.91764 -97.02581 2082 ft 193 kts
2026-05-06 07:13 32.93121 -97.02587 2788 ft 201 kts 360°
2026-05-06 07:13 32.94589 -97.02631 2980 ft 218 kts 356°
2026-05-06 07:14 32.96113 -97.02837 3016 ft 222 kts 351°
2026-05-06 07:14 32.97538 -97.03440 3019 ft 217 kts 324°
2026-05-06 07:14 32.98583 -97.04717 3017 ft 216 kts 306°
2026-05-06 07:14 32.99424 -97.06199 3016 ft 216 kts 303°
2026-05-06 07:15 33.00087 -97.07789 3016 ft 216 kts 281°
2026-05-06 07:15 32.99953 -97.09541 3016 ft 216 kts 245°
2026-05-06 07:15 32.99010 -97.10889 3015 ft 216 kts 215°
2026-05-06 07:15 32.97705 -97.11804 3016 ft 217 kts 204°
2026-05-06 07:16 32.96257 -97.12287 3017 ft 217 kts 186°
2026-05-06 07:16 32.94753 -97.12383 3021 ft 213 kts 180°
2026-05-06 07:16 32.93278 -97.12362 3018 ft 211 kts 179°
2026-05-06 07:16 32.91811 -97.12327 3016 ft 210 kts 178°
2026-05-06 07:17 32.90348 -97.12293 3018 ft 211 kts 178°
2026-05-06 07:17 32.88891 -97.12259 3017 ft 209 kts 179°
2026-05-06 07:17 32.87428 -97.12218 3016 ft 209 kts 178°
2026-05-06 07:17 32.85966 -97.12181 3017 ft 211 kts 179°
2026-05-06 07:18 32.84501 -97.12148 3020 ft 210 kts 179°
2026-05-06 07:18 32.83039 -97.12114 3018 ft 209 kts 179°
2026-05-06 07:18 32.81579 -97.12079 3017 ft 208 kts 179°
2026-05-06 07:18 32.80122 -97.12043 3015 ft 210 kts 179°
2026-05-06 07:19 32.78678 -97.12007 3030 ft 211 kts 179°
2026-05-06 07:19 32.77213 -97.11968 3036 ft 210 kts 179°
2026-05-06 07:19 32.75735 -97.11929 3035 ft 209 kts 178°
2026-05-06 07:19 32.74304 -97.11894 3034 ft 210 kts 179°
2026-05-06 07:20 32.72817 -97.11860 3038 ft 210 kts 179°
2026-05-06 07:20 32.71376 -97.11822 3016 ft 210 kts 179°
2026-05-06 07:20 32.69913 -97.11780 3017 ft 209 kts 178°
2026-05-06 07:20 32.68455 -97.11742 3012 ft 209 kts 179°
2026-05-06 07:21 32.67049 -97.11685 3014 ft 203 kts 178°
2026-05-06 07:21 32.65637 -97.11618 3016 ft 203 kts 178°
2026-05-06 07:21 32.64228 -97.11556 3016 ft 203 kts 178°
2026-05-06 07:21 32.62814 -97.11494 3018 ft 203 kts 179°
2026-05-06 07:22 32.61407 -97.11432 3016 ft 203 kts 179°
2026-05-06 07:22 32.60006 -97.11362 3015 ft 201 kts 178°
2026-05-06 07:22 32.58608 -97.11291 3019 ft 201 kts 179°
2026-05-06 07:22 32.57206 -97.11218 3014 ft 202 kts 176°
2026-05-06 07:23 32.55881 -97.10681 3016 ft 207 kts 144°
2026-05-06 07:23 32.55060 -97.09290 3010 ft 213 kts 109°
2026-05-06 07:23 32.55072 -97.07523 3012 ft 221 kts 74°
2026-05-06 07:23 32.55747 -97.05871 3015 ft 227 kts 53°
2026-05-06 07:24 32.57015 -97.04767 3014 ft 231 kts 20°
2026-05-06 07:24 32.58563 -97.04295 3013 ft 226 kts 11°
2026-05-06 07:24 32.60059 -97.03964 3016 ft 213 kts 10°
2026-05-06 07:24 32.61505 -97.03667 3036 ft 210 kts 10°
2026-05-06 07:25 32.62934 -97.03374 3016 ft 209 kts 10°
2026-05-06 07:25 32.64346 -97.03079 3009 ft 201 kts
2026-05-06 07:25 32.65714 -97.02795 3030 ft 199 kts
2026-05-06 07:25 32.67094 -97.02713 3033 ft 197 kts 359°
2026-05-06 07:26 32.68465 -97.02715 3038 ft 195 kts 358°
2026-05-06 07:26 32.69827 -97.02713 3046 ft 195 kts 359°
2026-05-06 07:26 32.71164 -97.02707 3034 ft 190 kts
2026-05-06 07:26 32.72490 -97.02700 3052 ft 191 kts
2026-05-06 07:27 32.73767 -97.02693 3028 ft 175 kts
2026-05-06 07:27 32.74919 -97.02687 3021 ft 160 kts
2026-05-06 07:27 32.76002 -97.02681 2890 ft 152 kts
2026-05-06 07:27 32.77034 -97.02675 2753 ft 145 kts
2026-05-06 07:28 32.78027 -97.02686 2616 ft 140 kts
2026-05-06 07:28 32.78990 -97.02679 2441 ft 135 kts
2026-05-06 07:28 32.80522 -97.02688 2055 ft 133 kts
2026-05-06 07:29 32.81427 -97.02685 1855 ft 127 kts
2026-05-06 07:29 32.82320 -97.02670 1736 ft 128 kts
2026-05-06 07:29 32.83212 -97.02659 1556 ft 128 kts
2026-05-06 07:29 32.84089 -97.02654 1358 ft 126 kts
2026-05-06 07:30 32.84954 -97.02632 1202 ft 123 kts 359°
2026-05-06 07:30 32.85819 -97.02631 1048 ft 125 kts
2026-05-06 07:30 32.86696 -97.02630 868 ft 125 kts 358°
2026-05-06 07:30 32.87581 -97.02617 697 ft 127 kts
2026-05-06 07:31 32.88442 -97.02613 600 ft 112 kts
2026-05-06 07:31 32.88959 -97.02611 598 ft 31 kts 359°
2026-05-06 07:31 32.89176 -97.02660 598 ft 34 kts 335°
2026-05-06 07:31 32.89346 -97.02774 598 ft 9 kts 329°
2026-05-06 07:32 32.89351 -97.02777 598 ft 0 kts 328°
2026-05-06 07:32 32.89365 -97.02799 598 ft 10 kts 303°
2026-05-06 07:32 32.89395 -97.02921 598 ft 20 kts 268°
2026-05-06 07:33 32.89395 -97.03094 598 ft 22 kts 270°
2026-05-06 07:33 32.89397 -97.03272 598 ft 20 kts 271°
2026-05-06 07:33 32.89396 -97.03427 598 ft 19 kts 273°
2026-05-06 07:33 32.89386 -97.03557 598 ft 12 kts 243°
2026-05-06 07:34 32.89319 -97.03612 598 ft 12 kts 207°
2026-05-06 07:34 32.89281 -97.03637 598 ft 2 kts 208°
2026-05-06 07:34 32.89279 -97.03637 598 ft 0 kts 208°